Station APAM2 - 8575512 - Annapolis, MD Image indicating link to RSS feed of recent meteorological observations for station APAM2


Conditions at APAM2 as of
(4:30 pm EDT)
2030 GMT on 05/26/2024:
     

Click on the graph icon in the table below to see a time series plot of the last five days of that observation.

5-day plot - Atmospheric Pressure Atmospheric Pressure (PRES):29.84 in
5-day plot - Air Temperature Air Temperature (ATMP): 80.6 °F
5-day plot - Water Temperature Water Temperature (WTMP): 76.3 °F
NOS Water Level Observation Network Water Level
Previous observations
TIME
(EDT)
5-day plot - Wind Direction
WDIR
 
5-day plot - Wind Speed
WSPD
kts
5-day plot - Wind Gust
GST
kts
5-day plot - Wave Height
WVHT
ft
5-day plot - Dominant Wave Period
DPD
sec
5-day plot - Average Wave Period
APD
sec
5-day plot - Mean Wave Direction
MWD
 
5-day plot - Atmospheric Pressure
PRES
in
5-day plot - Pressure Tendency
PTDY
in
5-day plot - Air Temperature
ATMP
°F
5-day plot - Water Temperature
WTMP
°F
5-day plot - Dew Point
DEWP
°F
5-day plot - Salinity
SAL
psu
5-day plot - Visibility
VIS
nmi
5-day plot - Tide (above MLLW)
TIDE
ft
2024-05-26 04:24 pm-------29.85- 80.8 76.6----
2024-05-26 04:18 pmESE 6.0 8.9----29.85- 80.6 76.5----
2024-05-26 04:12 pmESE 6.0 11.1----29.84- 80.1 77.5----
2024-05-26 04:06 pm E 7.0 8.9----29.84- 78.4 77.7----
2024-05-26 04:00 pmESE 6.0 8.0----29.84-0.05- 77.7----
2024-05-26 03:54 pmESE 5.1 7.0----29.84-- 77.5----
2024-05-26 03:48 pmESE 5.1 8.0----29.84-- 76.8----
2024-05-26 03:42 pmESE 6.0 7.0----29.84-- 77.0----
2024-05-26 03:36 pm E 7.0 8.0----29.84-- 75.9----
2024-05-26 03:30 pm E 7.0 7.0----29.84- 77.9 77.2----
2024-05-26 03:24 pmESE 5.1 7.0----29.85- 79.9 76.5----
2024-05-26 03:18 pmESE 5.1 7.0----29.85-- 76.5----
2024-05-26 03:12 pmESE 5.1 7.0----29.85-- 76.8----
2024-05-26 03:06 pm E 6.0 8.0----29.86-- 75.7----
2024-05-26 03:00 pm E 7.0 8.0----29.86-0.04 77.0 76.1----
2024-05-26 02:54 pm E 6.0 7.0----29.86- 76.8 76.3----
2024-05-26 02:48 pm-------29.87- 76.8 77.0----
2024-05-26 02:42 pm-------29.87- 76.6 76.5----
2024-05-26 02:36 pm-------29.87- 76.8 76.6----
2024-05-26 02:30 pm E 6.0 6.0----29.88- 76.8 76.5----
2024-05-26 02:24 pm E 5.1 6.0----29.88- 76.3 76.3----
2024-05-26 02:18 pm E 5.1 5.1----29.88- 76.8 76.6----
2024-05-26 02:12 pmESE 5.1 5.1----29.88- 77.0 76.6----
2024-05-26 02:06 pm E 5.1 6.0----29.88- 76.8 76.6----
2024-05-26 02:00 pm E 6.0 6.0------- 76.8----
2024-05-26 01:54 pm E 5.1 6.0------- 76.8----
2024-05-26 01:48 pm E 6.0 6.0----29.89- 76.6 77.4----
2024-05-26 01:42 pm E 5.1 6.0----29.89- 76.5 76.8----
2024-05-26 01:36 pm E 5.1 6.0----29.89- 76.6 76.6----
2024-05-26 01:30 pm E 4.1 5.1----29.89-- 76.8----
2024-05-26 01:24 pm E 5.1 6.0----29.89-- 76.6----
2024-05-26 01:18 pm E 6.0 6.0----29.89- 76.5 76.6----
2024-05-26 01:12 pm E 6.0 7.0----29.89- 76.5 77.0----
2024-05-26 01:06 pm E 7.0 8.0----29.89- 76.5 76.8----
2024-05-26 01:00 pm E 7.0 8.0----29.88+0.00 76.8 77.2----
2024-05-26 12:54 pm E 8.0 8.0----29.88- 76.5 76.6----
2024-05-26 12:48 pm E 7.0 8.0----29.89- 76.3 76.8----
2024-05-26 12:42 pm E 8.0 8.9----29.89- 76.1 76.8----
2024-05-26 12:36 pm E 8.9 9.9----29.88- 75.6 77.0----
2024-05-26 12:30 pm E 8.0 9.9----29.88- 75.7 77.4----
2024-05-26 12:24 pm E 7.0 8.0----29.88- 76.6 77.5----
2024-05-26 12:18 pm E 7.0 8.9----29.88- 77.0 77.0----
2024-05-26 12:12 pmESE 5.1 7.0----29.89- 77.4 76.6----
2024-05-26 12:06 pm SE 5.1 7.0----29.89- 76.8 76.5----
2024-05-26 12:00 pmSSE 4.1 6.0----29.90+0.01 77.2 76.6----
2024-05-26 11:54 amSSE 4.1 6.0----29.90- 77.2 76.5----
2024-05-26 11:48 am E 5.1 5.1----29.91- 75.9 76.6----
2024-05-26 11:42 am E 4.1 5.1----29.91- 75.9 76.8----
2024-05-26 11:36 am E 2.9 4.1----29.91- 76.3 76.8----
2024-05-26 11:30 am E 2.9 4.1----29.92- 76.3 76.5----
2024-05-26 11:24 am E 4.1 6.0----29.92- 75.9 76.5----
2024-05-26 11:18 am E 6.0 7.0----29.91- 75.2 76.6----
2024-05-26 11:12 am E 6.0 6.0----29.91- 75.4 76.3----
2024-05-26 11:06 am E 5.1 7.0----29.91- 75.7 76.6----
2024-05-26 11:00 am E 6.0 7.0----29.90+0.04 75.0 76.6----
2024-05-26 10:54 am E 2.9 5.1----29.90- 75.9 76.5----
2024-05-26 10:48 am E 4.1 6.0----29.90- 75.2 76.5----
2024-05-26 10:42 am E 5.1 6.0----29.89- 74.8 76.6----
2024-05-26 10:36 amENE 2.9 4.1----29.89- 75.6 76.5----
2024-05-26 10:30 am E 1.9 1.9----29.90- 75.4 76.5----
2024-05-26 10:24 am NE 1.0 1.9----29.90- 75.4 76.3----
2024-05-26 10:18 amENE 1.9 2.9----29.90- 75.4 76.3----
2024-05-26 10:12 am E 1.9 4.1----29.90- 75.6 76.5----
2024-05-26 10:06 am SE 2.9 7.0----29.89- 75.4 76.5----
2024-05-26 10:00 am E 7.0 8.0----29.89+0.02 73.8 76.6----
2024-05-26 09:54 amESE 5.1 7.0----29.89- 74.1 76.6----
2024-05-26 09:48 am SE 4.1 7.0----29.89- 74.8 76.8----
2024-05-26 09:42 am SE 5.1 6.0----29.89- 75.2 76.6----
2024-05-26 09:36 am SE 5.1 6.0----29.89- 75.0 77.0----
2024-05-26 09:30 am SE 2.9 5.1----29.89-- 77.2----
2024-05-26 09:24 am E 2.9 4.1----29.89-- 77.0----
2024-05-26 09:18 am E 4.1 5.1----29.89-- 76.6----
2024-05-26 09:12 am E 4.1 5.1----29.89-- 76.6----
2024-05-26 09:06 amESE 4.1 5.1----29.89-- 76.6----
2024-05-26 09:00 am SE 2.9 5.1----29.89+0.03- 76.8----
2024-05-26 08:54 am E 5.1 6.0----29.89-- 76.8----
2024-05-26 08:48 am E 5.1 6.0----29.88- 72.7 77.0----
2024-05-26 08:42 am E 5.1 6.0----29.88- 72.9 77.0----
2024-05-26 08:36 am E 6.0 7.0----29.88- 72.5 77.0----
2024-05-26 08:30 am E 6.0 6.0----29.88- 73.0 76.8----
2024-05-26 08:24 am E 5.1 6.0----29.88- 73.0 76.6----
2024-05-26 08:18 am E 4.1 5.1----29.87- 73.4 76.8----
2024-05-26 08:12 am E 4.1 5.1----29.87- 73.4 76.8----
2024-05-26 08:06 amENE 1.9 4.1----29.86- 74.1 76.8----
2024-05-26 08:00 am-------29.86+0.02 73.9-----
2024-05-26 07:54 am-------29.87- 73.6-----
2024-05-26 07:48 amNNE 2.9 5.1----29.87- 73.2 76.6----
2024-05-26 07:42 amNNE 4.1 5.1----29.87- 72.9 76.6----
2024-05-26 07:36 am NE 5.1 6.0----29.87- 72.1 76.5----
2024-05-26 07:30 amENE 4.1 5.1----29.86- 71.8 76.5----
2024-05-26 07:24 amENE 1.0 1.9----29.87- 72.0 76.5----
2024-05-26 07:18 am NE 1.9 1.9----29.87-- 76.5----
2024-05-26 07:12 amNNW 1.9 2.9----29.87-- 76.5----
2024-05-26 07:06 am NW 1.9 2.9----29.87-- 76.5----
2024-05-26 07:00 am NW 4.1 5.1----29.87+0.04- 76.5----
2024-05-26 06:54 am NW 2.9 4.1----29.87-- 76.5----
2024-05-26 06:48 am NW 4.1 6.0----29.88-- 76.5----
2024-05-26 06:42 am NW 6.0 7.0----29.87-- 76.5----
2024-05-26 06:36 am NW 6.0 8.0----29.87-- 76.5----
2024-05-26 06:30 am NW 6.0 7.0----29.87- 69.8 76.5----
2024-05-26 06:24 amWNW 5.1 6.0----29.87- 69.8 76.5----
2024-05-26 06:18 amWNW 5.1 6.0----29.87-- 76.5----
2024-05-26 06:12 am W 4.1 5.1----29.87-- 76.5----
2024-05-26 06:06 amWNW 4.1 6.0----29.86-- 76.5----
2024-05-26 06:00 amWNW 5.1 6.0----29.86+0.03 69.6 76.5----
2024-05-26 05:54 amWNW 4.1 4.1----29.85- 69.6 76.3----
2024-05-26 05:48 am NW 2.9 5.1----29.85- 69.6 76.3----
2024-05-26 05:42 amWNW 4.1 5.1----29.86- 70.0 76.5----
2024-05-26 05:36 amWNW 4.1 6.0----29.85- 70.0 76.5----
2024-05-26 05:30 amWNW 5.1 6.0----29.85- 70.0 76.5----
2024-05-26 05:24 amWNW 4.1 5.1----29.85- 69.8 76.5----
2024-05-26 05:18 amNNW 1.9 2.9----29.85- 69.6 76.1----
2024-05-26 05:12 amNNW 2.9 4.1----29.84- 70.0 76.1----
2024-05-26 05:06 am W 2.9 4.1----29.85- 69.4 76.1----
2024-05-26 05:00 am W 4.1 4.1----29.84+0.00 69.6 76.1----
2024-05-26 04:54 amWNW 1.9 4.1----29.84- 70.0 76.3----
2024-05-26 04:48 amWNW 2.9 4.1----29.84-- 76.3----
2024-05-26 04:42 am NW 2.9 4.1----29.84-- 76.3----
2024-05-26 04:36 am NW 2.9 2.9----29.84-- 76.3----
2024-05-26 04:30 amWNW 2.9 4.1----29.83- 70.0 76.3----
2024-05-26 04:24 amWNW 5.1 5.1----29.84- 70.5 76.3----
2024-05-26 04:18 am W 1.9 2.9----29.84- 70.3 76.3----
2024-05-26 04:12 am W 1.0 1.9----29.84- 70.3 76.1----
2024-05-26 04:06 amWNW 1.9 2.9----29.84- 70.3 75.9----
2024-05-26 04:00 am NW 1.9 1.9----29.83+0.00 70.7 75.4----
2024-05-26 03:54 am NW 1.9 2.9----29.83- 70.7 74.8----
2024-05-26 03:48 amWNW 2.9 4.1----29.83- 70.9 75.4----
2024-05-26 03:42 am NW 2.9 2.9----29.83- 71.2 76.1----
2024-05-26 03:36 am- 0.0 1.9----29.83- 72.0 76.3----
2024-05-26 03:30 am E 1.9 2.9----29.83- 72.0 76.3----
2024-05-26 03:24 am E 1.0 2.9----29.83- 72.1 76.5----
2024-05-26 03:18 amESE 1.9 2.9----29.83- 72.1 76.6----
2024-05-26 03:12 amESE 1.9 2.9----29.83- 72.1 76.6----
2024-05-26 03:06 am E 1.9 2.9----29.83- 72.3 76.8----
2024-05-26 03:00 amSSE 1.0 2.9----29.83+0.00 72.3 76.6----
2024-05-26 02:54 amESE 2.9 5.1----29.83- 72.3 77.0----
2024-05-26 02:48 amESE 1.9 4.1----29.83- 72.3 77.2----
2024-05-26 02:42 amESE 1.9 4.1----29.83- 72.3 77.0----
2024-05-26 02:36 am SE 2.9 4.1----29.83- 72.3 77.0----
2024-05-26 02:30 amESE 1.9 2.9----29.83- 72.3 77.0----
2024-05-26 02:24 amESE 1.9 1.9----29.83- 72.5 77.0----
2024-05-26 02:18 am SE 1.9 4.1----29.83- 72.7 77.0----
2024-05-26 02:12 am- 0.0 2.9----29.84- 72.7 77.0----
2024-05-26 02:06 am SW 1.9 4.1----29.84- 72.7 77.0----
2024-05-26 02:00 amSSW 1.9 4.1----29.84-0.01 72.9 77.0----
2024-05-26 01:54 am- 0.0 2.9----29.84- 72.9 77.0----
2024-05-26 01:48 am SW 1.9 2.9----29.84- 72.9 77.0----
2024-05-26 01:42 am W 1.9 4.1----29.84- 73.2 77.0----
2024-05-26 01:36 am- 0.0 4.1----29.83- 73.4 77.0----
2024-05-26 01:30 amSSW 2.9 5.1----29.83- 73.6 77.0----
2024-05-26 01:24 am S 1.0 4.1----29.83- 73.4 77.0----
2024-05-26 01:18 am S 1.9 1.9----29.83- 73.2 77.0----
2024-05-26 01:12 amSSE 1.0 2.9----29.83- 73.2 76.6----
2024-05-26 01:06 amSSE 1.9 4.1----29.83- 73.4 76.8----
2024-05-26 01:00 amSSE 1.0 4.1----29.84-0.02 73.8 77.0----
2024-05-26 12:54 am S 2.9 5.1----29.84- 73.9 76.8----
2024-05-26 12:48 am S 1.9 5.1----29.85- 73.9 76.8----
2024-05-26 12:42 amSSW 1.9 2.9----29.85- 73.9 76.6----
2024-05-26 12:36 am- 0.0 5.1----29.85- 73.9 76.6----
2024-05-26 12:30 am SW 1.9 4.1----29.85- 74.3 76.6----
2024-05-26 12:24 am W 1.9 2.9----29.84- 74.3 76.8----
2024-05-26 12:18 amWSW 1.0 5.1----29.84- 74.5 76.8----
2024-05-26 12:12 am S 2.9 7.0----29.84- 74.7 76.8----
2024-05-26 12:06 am S 4.1 8.0----29.84- 74.8 76.8----
2024-05-26 12:00 am S 4.1 7.0----29.83+0.00 74.8 76.8----
2024-05-25 11:54 pm S 2.9 8.0----29.84- 75.0 76.8----
2024-05-25 11:48 pm S 1.9 6.0----29.85- 75.4 76.8----
2024-05-25 11:42 pm SW 1.9 5.1----29.86- 75.2 76.8----
2024-05-25 11:36 pmSSW 1.9 6.0----29.86- 75.2 76.8----
2024-05-25 11:30 pm S 1.9 5.1----29.85- 74.8 76.8----
2024-05-25 11:24 pmSSE 1.9 5.1----29.85- 75.0 76.8----
2024-05-25 11:18 pm S 5.1 7.0----29.85- 75.2 76.8----
2024-05-25 11:12 pm S 2.9 5.1----29.85- 75.4 76.6----
2024-05-25 11:06 pmSSE 1.9 5.1----29.85- 75.2 76.6----
2024-05-25 11:00 pm- 0.0 5.1----29.86+0.04 75.2 76.6----
2024-05-25 10:54 pmWSW 1.9 5.1----29.86- 75.2 76.6----
2024-05-25 10:48 pmWSW 2.9 7.0----29.86- 75.4 76.6----
2024-05-25 10:42 pm S 1.9 7.0----29.86- 75.2 76.5----
2024-05-25 10:36 pmSSE 5.1 8.0----29.86- 75.2 76.6----
2024-05-25 10:30 pmSSE 4.1 8.0----29.86- 75.2 76.6----
2024-05-25 10:24 pm SE 5.1 8.0----29.86- 75.2 76.6----
2024-05-25 10:18 pmSSE 6.0 8.9----29.86- 75.4 76.6----
2024-05-25 10:12 pmSSE 4.1 8.0----29.86- 75.2 76.6----
2024-05-25 10:06 pmSSE 4.1 8.9----29.85- 75.2 76.6----
2024-05-25 10:00 pmSSE 4.1 9.9----29.85+0.06 75.2 76.6----
2024-05-25 09:54 pmSSE 5.1 8.0----29.85- 75.2 76.6----
2024-05-25 09:48 pmSSE 4.1 8.0----29.85- 75.4 76.6----
2024-05-25 09:42 pmSSE 4.1 11.1----29.85- 75.4 76.6----
2024-05-25 09:36 pmSSE 7.0 9.9----29.85- 75.2 76.6----
2024-05-25 09:30 pmSSE 6.0 12.0----29.85- 75.4 76.5----
2024-05-25 09:24 pmSSE 6.0 11.1----29.84- 75.4 76.6----
2024-05-25 09:18 pmSSE 6.0 9.9----29.84- 75.4 76.6----
2024-05-25 09:12 pmSSE 6.0 9.9----29.84- 75.4 76.5----
2024-05-25 09:06 pmSSE 4.1 8.0----29.84- 75.4 76.3----
2024-05-25 09:00 pmSSE 4.1 8.9----29.83- 75.4 76.3----
2024-05-25 08:54 pmSSE 6.0 12.0----29.83- 75.4 76.3----
2024-05-25 08:48 pmSSE 6.0 11.1----29.83- 75.4 76.3----
2024-05-25 08:42 pmSSE 5.1 11.1----29.83- 75.7 75.9----
2024-05-25 08:36 pm SE 7.0 11.1----29.82- 75.7 75.9----
2024-05-25 08:30 pm SE 7.0 11.1----29.82- 75.9 75.9----
2024-05-25 08:24 pmSSE 5.1 12.0----29.81- 75.9 75.9----
2024-05-25 08:18 pmSSE 5.1 12.0----29.81- 76.1 75.9----
2024-05-25 08:12 pmSSE 6.0 13.0----29.81- 76.3 75.9----
2024-05-25 08:06 pm SE 7.0 12.0----29.81- 76.5 76.1----
2024-05-25 08:00 pmSSE 6.0 9.9----29.81+0.01 76.8 76.1----
2024-05-25 07:54 pm S 4.1 12.0----29.81- 77.2 76.3----
2024-05-25 07:48 pm-------29.81- 77.4 76.5----
2024-05-25 07:42 pm-------29.81- 77.5 76.6----
2024-05-25 07:36 pm-------29.81- 77.7 76.6----
2024-05-25 07:30 pmSSE 6.0 9.9----29.80-- 76.6----
2024-05-25 07:24 pmSSE 5.1 11.1----29.80-- 76.6----
2024-05-25 07:00 pmSSE 5.1 11.1----29.79-0.02 78.3 76.6----
2024-05-25 06:54 pmSSE 8.0 12.0----29.79- 78.3 76.1----
2024-05-25 06:48 pmSSE 6.0 8.9----29.79-- 76.1----
2024-05-25 06:42 pmSSE 4.1 8.0----29.79-- 75.9----
2024-05-25 06:36 pmSSE 8.0 13.0----29.79-- 76.3----
2024-05-25 06:30 pmSSE 5.1 11.1----29.79- 79.2 75.9----
2024-05-25 06:24 pmSSE 5.1 9.9----29.79- 80.1 75.7----
2024-05-25 06:18 pmSSE 4.1 8.9----29.79- 80.4 75.9----
2024-05-25 06:12 pmSSE 8.0 13.0----29.79- 80.4 76.3----
2024-05-25 06:06 pmSSE 6.0 11.1----29.79- 80.8 76.3----
2024-05-25 06:00 pmSSE 6.0 11.1------ 81.9 76.1----
2024-05-25 05:54 pm SE 5.1 9.9------ 82.0 76.1----
2024-05-25 05:48 pmSSE 4.1 12.0----29.80-- 75.9----
2024-05-25 05:42 pmSSE 7.0 12.0----29.79-- 76.1----
2024-05-25 05:36 pmSSE 6.0 11.1----29.80-- 76.1----
2024-05-25 05:30 pmSSE 5.1 9.9----29.80- 82.9-----
2024-05-25 05:24 pm SE 4.1 9.9----29.80- 82.8-----
2024-05-25 05:18 pm SE 5.1 8.9----29.80- 83.3 75.6----
2024-05-25 05:12 pm SE 5.1 8.9----29.80- 82.9 75.6----
2024-05-25 05:06 pm SE 5.1 9.9----29.80- 82.8 75.7----
2024-05-25 05:00 pm SE 7.0 11.1----29.80-0.03 82.8 75.9----
2024-05-25 04:54 pm SE 6.0 12.0----29.80- 82.8 75.7----